Find Starlink 4666

NORAD ID: 53789 Int'l Des: 2022-111 Owner: SPXS Country: US Constellation: starlink operational
LEOCIRCULAR

Current View

Loading 3D Globe...

About Starlink 4666

Description loading...

Upcoming Passes

Passes for default location (London). Set your location on the main map for personalized predictions.

Altitude History

Loading altitude history...

Two-Line Element Set

1 53789U 22111S 26159.46218845 .00004730 00000-0 31508-3 0 9994
2 53789 53.1684 226.3066 0002172 134.6565 225.4604 15.08838004207399
Epoch: Jun 8, 2026 • Age: 13 hours

Current Status

Altitude 544.9 km
Velocity 7.60 km/s
Sub-Earth Point 52.35°N, 67.83°E
Launch Date Sep 11, 2022
Age 3.7 years
Type internet

Technical Details

Classification Payload
Mass 305.00 kg
Dry Mass 290.00 kg
Total Mass 305.00 kg
Length 0.20 m
Diameter 2.80 m
Span 9.00 m
Shape Box + pan
Manufacturer SPXS
Bus Type Starlink
Phase Status In Orbit
Owner/State SPXS/US

Most Searched